Time,TemperatureF,DewpointF,PressureIn,WindDirection,WindDirectionDegrees,WindSpeedMPH,WindSpeedGustMPH,Humidity,HourlyPrecipIn,Conditions,Clouds,dailyrainin,SoftwareType,DateUTC
2013-05-21 00:04:00,74.2,72.0,30.04,South,172,0.0,3.0,91,0.00,,,0.00,weatherlink.com 1.10,2013-05-21 04:04:00,
2013-05-21 00:19:00,74.1,71.0,30.03,South,181,0.0,2.0,91,0.00,,,0.00,weatherlink.com 1.10,2013-05-21 04:19:00,
2013-05-21 00:34:00,74.0,71.0,30.03,SSE,167,1.0,2.0,91,0.00,,,0.00,weatherlink.com 1.10,2013-05-21 04:34:00,
2013-05-21 00:49:00,74.0,72.0,30.03,South,183,1.0,2.0,92,0.00,,,0.00,weatherlink.com 1.10,2013-05-21 04:49:00,
2013-05-21 01:05:00,73.9,72.0,30.03,SE,133,1.0,2.0,92,0.00,,,0.00,weatherlink.com 1.10,2013-05-21 05:05:00,
2013-05-21 01:20:00,73.7,71.0,30.03,SW,226,0.0,2.0,92,0.00,,,0.00,weatherlink.com 1.10,2013-05-21 05:20:00,
2013-05-21 01:35:00,73.4,71.0,30.02,SW,221,0.0,1.0,92,0.00,,,0.00,weatherlink.com 1.10,2013-05-21 05:35:00,
2013-05-21 01:50:00,73.1,71.0,30.02,SW,221,0.0,0.0,93,0.00,,,0.00,weatherlink.com 1.10,2013-05-21 05:50:00,
2013-05-21 02:05:00,72.7,71.0,30.02,SW,221,0.0,0.0,93,0.00,,,0.00,weatherlink.com 1.10,2013-05-21 06:05:00,
2013-05-21 02:20:00,72.4,71.0,30.01,SW,221,0.0,0.0,94,0.00,,,0.00,weatherlink.com 1.10,2013-05-21 06:20:00,
2013-05-21 02:35:00,72.2,70.0,30.01,SW,221,0.0,0.0,94,0.00,,,0.00,weatherlink.com 1.10,2013-05-21 06:35:00,
2013-05-21 07:52:00,72.9,71.0,30.05,WSW,243,0.0,0.0,95,0.00,,,0.00,weatherlink.com 1.10,2013-05-21 11:52:00,
2013-05-21 08:07:00,73.2,72.0,30.05,WSW,243,0.0,0.0,95,0.00,,,0.00,weatherlink.com 1.10,2013-05-21 12:07:00,
2013-05-21 08:22:00,73.3,72.0,30.06,WSW,243,0.0,0.0,95,0.00,,,0.00,weatherlink.com 1.10,2013-05-21 12:22:00,
2013-05-21 08:37:00,73.8,72.0,30.06,WSW,245,0.0,1.0,95,0.00,,,0.00,weatherlink.com 1.10,2013-05-21 12:37:00,
2013-05-21 08:52:00,74.6,73.0,30.06,West,264,2.0,2.0,93,0.00,,,0.00,weatherlink.com 1.10,2013-05-21 12:52:00,
2013-05-21 09:07:00,75.7,73.0,30.06,SSE,156,3.0,3.0,91,0.00,,,0.00,weatherlink.com 1.10,2013-05-21 13:07:00,
2013-05-21 09:22:00,76.4,73.0,30.06,SW,225,1.0,4.0,88,0.00,,,0.00,weatherlink.com 1.10,2013-05-21 13:22:00,
2013-05-21 09:37:00,77.2,73.0,30.07,SE,136,3.0,3.0,86,0.00,,,0.00,weatherlink.com 1.10,2013-05-21 13:37:00,
2013-05-21 09:52:00,77.5,73.0,30.06,South,181,1.0,4.0,85,0.00,,,0.00,weatherlink.com 1.10,2013-05-21 13:52:00,
2013-05-21 10:07:00,78.2,73.0,30.06,SW,221,1.0,4.0,83,0.00,,,0.00,weatherlink.com 1.10,2013-05-21 14:07:00,
2013-05-21 10:22:00,78.7,73.0,30.06,ESE,120,2.0,5.0,83,0.00,,,0.00,weatherlink.com 1.10,2013-05-21 14:22:00,
2013-05-21 10:37:00,79.2,73.0,30.07,SSW,212,0.0,5.0,82,0.00,,,0.00,weatherlink.com 1.10,2013-05-21 14:37:00,
2013-05-21 10:52:00,79.5,74.0,30.06,South,171,2.0,4.0,82,0.00,,,0.00,weatherlink.com 1.10,2013-05-21 14:52:00,
2013-05-21 11:07:00,79.0,74.0,30.07,SSW,194,1.0,6.0,83,0.00,,,0.00,weatherlink.com 1.10,2013-05-21 15:07:00,
2013-05-21 11:22:00,79.1,73.0,30.07,SSE,166,7.0,9.0,82,0.00,,,0.00,weatherlink.com 1.10,2013-05-21 15:22:00,
2013-05-21 11:37:00,78.6,73.0,30.07,SSE,156,3.0,13.0,84,0.00,,,0.00,weatherlink.com 1.10,2013-05-21 15:37:00,
2013-05-21 12:24:00,80.0,74.0,30.07,SSW,193,4.0,7.0,82,0.00,,,0.00,weatherlink.com 1.10,2013-05-21 16:24:00,
2013-05-21 12:37:00,79.0,74.0,30.06,SSE,148,4.0,12.0,83,0.00,,,0.00,weatherlink.com 1.10,2013-05-21 16:37:00,
2013-05-21 13:07:00,80.7,73.0,30.05,SSE,166,2.0,13.0,77,0.00,,,0.00,weatherlink.com 1.10,2013-05-21 17:07:00,
2013-05-21 13:22:00,81.1,74.0,30.05,SSW,195,4.0,13.0,80,0.00,,,0.00,weatherlink.com 1.10,2013-05-21 17:22:00,
2013-05-21 13:52:00,80.3,73.0,30.04,South,173,7.0,14.0,79,0.00,,,0.00,weatherlink.com 1.10,2013-05-21 17:52:00,
2013-05-21 14:07:00,79.1,73.0,30.04,South,176,4.0,12.0,81,0.00,,,0.00,weatherlink.com 1.10,2013-05-21 18:07:00,
2013-05-21 14:22:00,78.3,72.0,30.03,SSE,155,6.0,10.0,82,0.00,,,0.00,weatherlink.com 1.10,2013-05-21 18:22:00,
2013-05-21 14:37:00,78.8,73.0,30.03,SE,134,6.0,12.0,81,0.00,,,0.00,weatherlink.com 1.10,2013-05-21 18:37:00,
2013-05-21 14:52:00,79.9,73.0,30.03,SSW,196,2.0,8.0,78,0.00,,,0.00,weatherlink.com 1.10,2013-05-21 18:52:00,
2013-05-21 15:07:00,79.0,73.0,30.02,ESE,122,7.0,12.0,82,0.00,,,0.00,weatherlink.com 1.10,2013-05-21 19:07:00,
2013-05-21 15:22:00,79.3,73.0,30.02,SSE,148,3.0,11.0,80,0.00,,,0.00,weatherlink.com 1.10,2013-05-21 19:22:00,
2013-05-21 15:37:00,79.4,73.0,30.00,South,172,9.0,13.0,80,0.00,,,0.00,weatherlink.com 1.10,2013-05-21 19:37:00,
2013-05-21 16:07:00,79.8,73.0,30.00,SSE,165,4.0,9.0,79,0.00,,,0.00,weatherlink.com 1.10,2013-05-21 20:07:00,
2013-05-21 16:22:00,80.4,72.0,29.99,South,187,4.0,8.0,76,0.00,,,0.00,weatherlink.com 1.10,2013-05-21 20:22:00,
2013-05-21 16:37:00,80.5,72.0,29.98,SSE,166,6.0,10.0,75,0.00,,,0.00,weatherlink.com 1.10,2013-05-21 20:37:00,
2013-05-21 16:52:00,80.3,72.0,29.99,South,191,4.0,8.0,76,0.00,,,0.00,weatherlink.com 1.10,2013-05-21 20:52:00,
2013-05-21 17:07:00,80.2,72.0,29.98,South,172,4.0,9.0,75,0.00,,,0.00,weatherlink.com 1.10,2013-05-21 21:07:00,
2013-05-21 17:22:00,79.9,71.0,29.99,SSE,157,5.0,7.0,75,0.00,,,0.00,weatherlink.com 1.10,2013-05-21 21:22:00,
2013-05-21 17:37:00,78.9,72.0,29.99,SSE,148,2.0,10.0,78,0.00,,,0.00,weatherlink.com 1.10,2013-05-21 21:37:00,
2013-05-21 17:52:00,78.5,72.0,29.98,SSE,151,7.0,10.0,81,0.00,,,0.00,weatherlink.com 1.10,2013-05-21 21:52:00,
2013-05-21 18:07:00,77.6,72.0,29.98,South,184,7.0,13.0,82,0.00,,,0.00,weatherlink.com 1.10,2013-05-21 22:07:00,
2013-05-21 18:22:00,77.6,71.0,29.99,South,180,2.0,8.0,81,0.00,,,0.00,weatherlink.com 1.10,2013-05-21 22:22:00,
2013-05-21 18:37:00,76.3,72.0,29.99,South,180,5.0,7.0,85,0.00,,,0.00,weatherlink.com 1.10,2013-05-21 22:37:00,
2013-05-21 18:52:00,75.3,71.0,30.00,SSE,163,6.0,8.0,86,0.00,,,0.00,weatherlink.com 1.10,2013-05-21 22:52:00,
2013-05-21 19:07:00,74.7,71.0,30.00,SSE,163,4.0,7.0,87,0.00,,,0.00,weatherlink.com 1.10,2013-05-21 23:07:00,
2013-05-21 19:22:00,74.4,70.0,30.01,SSE,152,3.0,6.0,86,0.00,,,0.00,weatherlink.com 1.10,2013-05-21 23:22:00,
2013-05-21 19:37:00,74.3,70.0,30.01,SSE,163,3.0,5.0,87,0.00,,,0.00,weatherlink.com 1.10,2013-05-21 23:37:00,
2013-05-21 19:52:00,74.1,70.0,30.00,South,169,1.0,3.0,88,0.00,,,0.00,weatherlink.com 1.10,2013-05-21 23:52:00,
2013-05-21 20:07:00,73.9,70.0,30.00,South,181,2.0,5.0,88,0.00,,,0.00,weatherlink.com 1.10,2013-05-22 00:07:00,
2013-05-21 20:22:00,73.7,70.0,30.00,South,183,2.0,6.0,88,0.00,,,0.00,weatherlink.com 1.10,2013-05-22 00:22:00,
2013-05-21 21:23:00,73.2,70.0,29.98,South,172,5.0,8.0,88,0.00,,,0.00,weatherlink.com 1.10,2013-05-22 01:23:00,
2013-05-21 21:38:00,73.2,70.0,29.99,South,173,2.0,8.0,88,0.00,,,0.00,weatherlink.com 1.10,2013-05-22 01:38:00,
2013-05-21 21:53:00,73.0,69.0,29.99,SE,141,2.0,7.0,88,0.00,,,0.00,weatherlink.com 1.10,2013-05-22 01:53:00,
2013-05-21 22:08:00,73.2,70.0,30.00,SSE,160,7.0,9.0,89,0.00,,,0.00,weatherlink.com 1.10,2013-05-22 02:08:00,
2013-05-21 22:23:00,73.2,70.0,30.00,South,180,4.0,10.0,89,0.00,,,0.00,weatherlink.com 1.10,2013-05-22 02:23:00,
2013-05-21 22:38:00,73.2,70.0,29.99,South,173,7.0,9.0,89,0.00,,,0.00,weatherlink.com 1.10,2013-05-22 02:38:00,
2013-05-21 22:53:00,73.3,70.0,29.99,SSW,199,4.0,11.0,88,0.00,,,0.00,weatherlink.com 1.10,2013-05-22 02:53:00,
2013-05-21 23:08:00,73.3,69.0,29.99,SSE,156,4.0,10.0,87,0.00,,,0.00,weatherlink.com 1.10,2013-05-22 03:08:00,
2013-05-21 23:23:00,73.2,69.0,29.99,South,175,4.0,8.0,86,0.00,,,0.00,weatherlink.com 1.10,2013-05-22 03:23:00,
2013-05-21 23:38:00,73.2,69.0,29.99,South,177,4.0,7.0,86,0.00,,,0.00,weatherlink.com 1.10,2013-05-22 03:38:00,
2013-05-21 23:53:00,73.1,69.0,30.00,South,181,0.0,4.0,87,0.00,,,0.00,weatherlink.com 1.10,2013-05-22 03:53:00,